ONEWEB-0341 (49207 NORAD) Tracking and Keplerian Element Data

This shows tracking and keplerian element data for the satellite.

Feedback or suggestion? Click here.




ElementValue
Catalog49207
NameONEWEB-0341
Epoch Orbit365
Epoch Day287.91667824
Epoch Year2021
RAAN317.9422
Inclination87.4944
Eccentricity0.0019386
Argument of Perigee193.482
Mean Anonmoly282.7216
Mean Motion14.90801464
Decay Rate-0.01357838
L11 49207U 21083X 21287.91667824 -.01357838 00000-0 -14991+0 0 9999
L22 49207 87.4944 317.9422 0019386 193.4820 282.7216 14.90801464 3651

Live tracking and technical data element details for ONEWEB-0341 (NORAD 49207). ONEWEB-0341 can be tracked NOW for your location showing map with azimuth and elevation plus other details from your city location.

Track the satellite on the map from your city or location and see movement details for azimuth, elevation, latitude, longitude, range, height, and movement on the map or in text.







IsCatalogInMostPopularTable: catalog: 49207, numindb: 7
Update: records affected: 1



GetName: 49207 ONEWEB-0341

Hit Count: updated at: Tue, 19 Oct 2021 09:18:01 GMT